Погода в Убонратчатхани

Таиланд     15°15′17″N   104°52′05″E
темп.,
°C
ветер,
м/с
пор.,
м/с
влажн.,
%
обл.,
%
осадки,
мм/ч
давл.,
гПа
погр.,
м
8 марта, пн
пн801:00+26св47670 0.0 1012225
04:00+25св457121 0.0 1012137
07:00+25в386137 0.0 1014430
10:00+32ююв67350 0.0 10161202
13:00+36ююв43270 0.0 10112556
16:00+36ююв012667 0.0 10092818
19:00+33св223379 0.0 100962
22:00+30ссв473969 0.0 1012199
9 марта, вт
вт901:00+27св345535 0.0 1012116
04:00+25св24650 0.0 1011102
07:00+26юв37560 0.0 1014397
10:00+32ююв44380 0.0 1015983
13:00+36в22290 0.0 10112295
16:00+36ссв322522 0.0 10083011
19:00+33с343234 0.0 100970
22:00+31ссв6104047 0.0 1012406
10 марта, ср
ср1001:00+27св6105871 0.0 1012327
04:00+26всв246196 0.0 1011192
07:00+27юв365083 0.0 1014406
10:00+32юв443922 0.0 1014997
13:00+36в222911 0.0 10102279
16:00+37ссв33256 0.0 10072963
19:00+33ссв12318 0.0 100949
22:00+29св7114713 0.0 1012395
11 марта, чт
чт1101:00+27св6105854 0.0 1011297
04:00+27в4758100 0.0 1012427
07:00+27юв2449100 0.0 1014249
10:00+31юв333830 0.0 10141127
13:00+36св232715 0.0 10102157
16:00+37ссв34220 0.0 10073002
19:00+33ссв12280 0.0 100929
22:00+28св712520 0.0 1011402
12 марта, пт
пт1201:00+25всв611630 0.0 1011444
04:00+24св467115 0.0 1011177
07:00+24св34747 0.0 1014143
10:00+31всв11410 0.0 1014871
13:00+36с34250 0.0 10102059
16:00+37ссв34200 0.0 10073079
19:00+32св22240 0.0 100834
22:00+28св612510 0.0 1011316